sat.trackr.live / text

‹ back to catalog

STARLINK-2644

NORAD 48442 · 2021-040Q

PAYLOAD ACTIVE UNKNOWN

§ Identity

Operator
Country
US
Launch date
2021-05-09
Launch site
AFETR
Launch vehicle
Mass (kg)
RCS (m²)

Purposes: comms

External: N2YO · Heavens-Above · Gunter

§ Orbital elements

Epoch: 2026-09-16T00:00:02.000160Z

Period
91.34 min
Inclination
53.1554°
Eccentricity
0.0006852
Mean motion
15.76566140 rev/d
Perigee alt
335.6 km
Apogee alt
344.8 km
Semi-major
6,718.3 km
B*
4.4659e-4
RAAN
350.4711°
Arg perigee
351.5569°
Mean anomaly
128.8309°
Rev number
599

§ Raw data

STARLINK-26441 48442U 21040Q   26259.00002315  .00072627  00000+0  44659-3 0  99982 48442  53.1554 350.4711 0006852 351.5569 128.8309 15.76566140  5998

JSON: /api/v1/satellites/48442 · /tle

For live sub-satellite position, see the globe view (requires WebGL).

§ Visibility from observer

Set your observer location to see the next 7 days of passes ≥ 10°. The values pass through the URL so the page stays shareable.

No JS? Fill the form by hand. The geolocation button needs JavaScript.